COSMOS 2251 DEB, 34314

Orbit data source: Space-Track

COSMOS 2251 DEB, 34314 is space debris in LEO originally from a launch on Wed, 16 Jun 1993 UTC launched from the Plesetsk Missile And Space Complex (PKMTR). The debris from Iridium 33, an American commercial communications satellite, has been tracked extensively since its accidental collision with the defunct Russian satellite Cosmos 2251 in 2009. This event, occurring at high speed in low Earth orbit (LEO), generated thousands of pieces of space debris, significantly increasing the risk of further collisions. The Iridium 33 debris cloud has impacted space traffic management and orbital debris mitigation strategies, making it a subject of ongoing study in space situational awareness.

Loading next visibility...
Identifier
34314, 1993-036NL
Orbit
LEO
Country
Flag of CISCIS
Related business
Manufacturer
Unknown
Mission
Spacecraft
Bus & Motor
Unknown
Mass
Unknown
Launch date (UTC)
1993-06-16 (33 years ago)
Launch vehicle
Unknown
Launch site
Plesetsk Missile And Space Complex (PKMTR)
Object type
Payload
Rocket body
Debris
Shape & HBR
Unknown shape, 0.1 m
Radar Cross Section
Medium (>0.1 m² and <1 m²)

Expand to show TLE details & history
Last TLE update: 2 days ago

TLE from 2 days ago
0 COSMOS 2251 DEB
1 34314U 93036NL  26171.44819413  .00000252  00000-0  12865-3 0  9991
2 34314  74.0057 329.6995 0104336  32.6796 358.4609 14.17852864893464
Epoch: 2026-06-20T10:45Z
TLE epoch observation values (Epoch: 2026-06-20T10:45:23.972Z)
Latitude
29.83672°
Longitude
-90.90158°
Altitude
760.802 km
Speed
7.516 km/s
True Right ascension
22h 36m 26s
True Declination
29° 41' 19"
Sunlit
Object was in daylight at epoch
Visualization orbit readout
Latitude
Unknown
Longitude
Unknown
Altitude
Unknown
Speed
Unknown
Apparent Right ascension
Unknown
Apparent Declination
Unknown
Sunlit
N/A
Visualization observer readout
Local Sidereal Time
06:00:14
Azimuth
Unknown
Elevation
Unknown
Doppler factor
Unknown
Orbital elements
Apogee altitude
905.479 km
Perigee altitude
755.06 km
Semi-major axis
7,208.407 km
Eccentricity
0.01043
Inclination
74.0057°
RAAN
329.6995°
Arg. of periapsis
32.6796°
True anomaly
358.42836°
Mean anomaly
358.4609°
Eccentric anomaly
358.44467°
Mean motion
3.54637 °/min
Orbital period
101.51 mins
BSTAR
0.00012865

Documentation

Showing up to 5 results
|